Wind_Speed
17 16 15 12 11 10 10 10 9 9 10 9 8 7 6 8 12 16 20 20 17 16 16 16 15 16 20 17 22 22 18 16 17 25 28 29 30 32 32 33 28 28 28
18 16 15 12 10 9 9 9 7 7 7 5 5 6 5 6 10 15 18 19 19 19 18 17 16 19 18 18 22 22 19 19 22 26 30 28 27 29 31 33 31 27 29
20 18 16 13 10 9 9 8 7 6 5 5 4 6 5 6 8 13 17 19 18 17 18 17 17 19 19 21 24 20 21 20 22 25 29 26 26 28 30 28 26 27 28
22 19 17 13 10 10 9 8 7 6 5 5 4 4 3 4 8 12 16 18 17 17 19 18 17 17 19 22 23 24 22 23 22 22 25 26 27 27 26 28 29 27 31
23 19 16 14 12 11 10 8 7 6 5 4 2 2 2 4 8 12 17 17 18 20 20 20 20 17 17 20 21 25 26 23 22 22 22 26 26 28 26 28 28 31 28
24 21 17 17 15 13 11 7 6 7 5 3 1 1 2 4 7 12 15 16 19 21 21 22 21 22 22 22 24 25 25 24 23 23 24 25 27 30 32 29 28 27 9
27 23 20 19 17 13 11 7 9 7 5 2 1 2 2 3 8 11 14 15 19 21 21 22 22 24 25 25 24 24 21 22 22 27 27 27 31 31 33 30 27 27 27
28 26 22 21 18 15 13 9 8 7 5 3 2 2 2 5 8 10 14 16 18 21 22 19 22 27 26 27 26 22 22 21 21 25 26 30 31 32 31 30 32 31 28
30 28 25 22 21 18 15 12 8 7 5 4 2 2 4 5 8 10 13 16 20 24 24 19 25 26 27 27 26 23 23 22 25 26 27 28 28 28 28 30 25 25 21
33 30 27 24 22 20 15 13 9 8 6 6 4 3 4 6 6 10 10 16 21 26 26 24 28 26 27 27 25 25 23 28 32 33 32 31 30 30 28 27 27 24 22
34 30 27 25 22 19 16 14 11 10 9 7 5 4 5 5 5 6 8 13 19 23 23 26 28 26 26 23 23 22 26 29 31 30 29 27 27 27 27 30 30 27 24
35 32 29 26 24 20 18 15 12 11 10 7 6 5 4 3 4 6 8 13 17 19 21 24 25 25 23 23 24 25 27 26 27 26 26 25 27 29 31 33 30 30 29
36 34 32 29 26 22 20 17 15 13 11 9 7 6 4 3 4 7 10 14 17 18 18 22 22 23 22 24 24 24 27 25 25 24 25 26 29 30 32 31 32 29 29
39 36 34 32 29 25 21 18 16 15 12 10 8 6 4 4 6 9 11 15 16 17 20 20 23 21 22 21 24 25 25 26 25 24 25 26 27 29 28 29 27 28 23
40 38 36 35 32 28 24 21 18 14 11 10 8 6 5 5 8 8 12 15 16 17 19 18 24 21 20 21 22 24 24 25 24 25 24 26 24 27 26 29 25 25 17
37 38 39 39 35 30 26 20 16 12 10 8 7 7 6 8 7 9 11 12 15 15 16 16 23 21 20 21 23 24 24 26 26 27 25 25 24 25 26 26 22 20 17
41 40 40 41 37 32 27 23 20 14 11 10 8 8 8 8 6 9 10 11 13 14 14 16 19 20 20 22 23 23 25 26 27 26 25 26 25 23 25 22 20 19 16
42 42 43 43 39 33 28 24 19 17 16 12 9 8 8 7 7 8 9 12 12 13 14 18 19 21 22 22 23 24 26 27 27 27 26 26 25 23 22 19 18 18 15
42 41 42 41 37 32 27 23 19 16 14 11 11 9 8 8 7 8 7 9 10 13 17 19 19 21 22 22 24 25 26 25 26 26 26 26 25 22 20 17 16 15 13
42 42 41 38 34 30 27 24 21 18 16 14 13 11 10 10 9 8 7 6 8 12 17 19 20 21 23 24 25 25 26 25 26 25 26 25 25 23 19 16 11 11 10
42 39 39 37 34 32 30 26 22 20 17 16 13 11 11 11 9 9 8 8 7 11 17 19 20 21 22 23 25 26 25 25 25 26 26 26 24 22 19 14 8 5 5
42 39 37 37 34 33 31 26 22 20 17 16 13 12 11 11 10 10 9 8 8 9 14 17 19 20 21 22 24 25 25 26 27 28 27 24 21 19 16 12 4 4 4
39 37 37 36 35 33 29 25 22 20 18 16 13 13 13 12 12 11 9 8 8 10 14 16 18 20 20 22 22 23 25 27 28 24 23 20 19 17 13 7 3 4 4
38 38 39 37 35 33 30 27 24 20 18 16 14 13 13 13 12 10 9 9 9 9 14 15 17 18 20 22 22 23 24 25 23 21 18 16 16 12 8 3 4 4 5
39 39 38 37 36 34 31 27 24 21 19 17 15 14 13 12 11 9 9 9 9 11 14 15 17 18 20 21 21 23 23 21 18 16 15 12 10 7 6 2 2 4 6
39 38 38 35 34 33 31 28 25 22 21 19 17 15 12 11 10 8 9 9 9 10 13 15 17 18 19 20 22 23 20 19 17 14 12 8 6 6 4 3 4 5 6
Wind_Direction
166 165 159 147 142 133 124 117 105 94 85 78 73 73 76 57 37 32 30 24 26 24 21 13 5 351 345 344 341 345 337 329 307 309 312 317 319 320 322 325 322 320 320
172 171 166 158 149 138 123 118 111 106 105 103 88 61 73 53 32 27 23 20 18 19 14 7 359 350 348 343 338 339 332 322 318 311 315 318 319 321 318 320 321 322 320
177 175 170 165 157 146 136 133 139 131 132 115 91 64 69 44 30 22 17 15 19 15 7 359 353 348 344 341 336 333 330 319 317 309 310 320 322 325 321 320 322 324 324
180 179 175 172 164 157 156 154 156 153 135 113 91 59 61 30 19 13 11 12 11 5 360 1 356 348 343 335 336 332 326 322 319 318 317 318 323 326 325 325 325 325 324
181 181 180 175 172 170 170 168 166 161 145 131 115 57 37 4 6 6 6 6 2 355 356 359 357 354 343 342 335 330 327 324 323 322 318 320 323 327 327 323 317 323 323
185 185 183 181 179 181 178 173 174 171 163 156 153 6 350 352 2 1 0 1 358 354 354 354 358 358 350 344 340 334 327 322 320 318 314 315 319 322 321 319 318 320 321
188 188 187 186 185 185 182 181 178 174 168 169 238 318 308 340 347 354 355 355 358 2 357 351 351 352 349 345 337 325 324 323 318 320 309 311 312 317 316 316 315 313 311
190 190 190 190 190 188 189 186 178 180 184 202 263 299 315 328 333 341 346 349 354 358 356 352 351 348 350 347 333 330 329 325 323 322 317 317 318 323 320 313 310 303 305
192 193 194 194 193 194 195 194 192 193 200 212 218 285 313 319 319 329 337 347 349 351 354 358 355 349 351 351 342 335 333 332 332 328 328 333 333 332 334 325 320 318 315
195 197 197 196 198 200 201 201 202 204 211 203 229 274 306 314 312 325 339 343 344 347 347 357 355 352 350 349 348 344 336 334 334 336 332 328 331 332 336 332 323 315 315
198 198 197 199 202 204 201 202 205 205 201 213 232 254 299 308 317 333 340 337 344 343 347 345 347 349 347 347 346 343 338 335 337 331 329 330 334 334 334 336 333 318 308
196 195 196 199 201 202 202 201 204 207 210 225 231 250 293 299 316 322 323 335 343 339 340 340 344 346 345 345 346 344 343 344 336 333 334 337 338 333 334 337 340 339 331
194 195 197 199 201 203 201 202 204 208 218 223 231 259 287 306 317 324 332 337 342 341 342 338 346 349 350 349 347 345 348 343 336 335 336 333 329 331 332 336 337 339 337
194 196 197 198 198 202 206 210 213 216 220 224 234 255 265 303 321 330 336 338 342 343 343 343 349 348 347 345 349 351 351 348 337 335 333 328 332 338 334 337 332 335 333
195 196 197 198 198 200 206 212 218 225 235 233 242 251 263 302 322 329 338 343 347 345 340 343 346 349 343 341 341 349 347 346 341 341 336 333 336 339 338 341 340 342 341
188 194 198 197 198 202 204 205 213 224 231 233 249 265 278 298 305 324 332 343 342 341 346 342 343 336 339 339 337 340 345 345 344 341 339 337 336 337 336 339 347 350 356
191 195 199 199 199 199 202 205 203 213 224 232 245 254 268 282 287 318 327 330 344 347 345 340 340 338 332 334 335 336 335 341 342 342 339 336 335 338 340 337 0 9 7
197 200 201 201 202 202 204 208 211 216 216 220 236 245 259 243 287 313 313 330 342 351 343 338 336 337 331 331 333 335 333 335 342 339 337 336 338 341 339 347 13 7 11
196 200 203 203 204 205 204 205 212 214 216 226 225 237 230 245 277 304 298 338 340 338 341 338 335 333 329 332 332 332 332 330 340 339 338 336 339 341 347 360 12 15 27
199 204 204 203 202 202 200 203 205 210 213 221 227 237 238 242 267 292 290 320 330 336 337 336 336 339 335 337 333 332 331 334 337 338 338 335 342 344 343 357 13 19 28
200 202 205 202 200 200 201 203 207 208 216 221 229 239 240 248 267 285 280 290 318 333 332 335 337 336 340 342 336 333 331 333 335 335 337 338 343 337 347 353 357 20 42
201 200 201 201 201 202 206 207 206 210 215 218 225 234 234 249 262 275 279 286 303 323 325 334 334 334 339 342 340 336 333 333 334 335 338 339 341 331 344 350 8 67 76
200 198 198 201 204 206 207 205 206 211 215 219 226 229 239 248 261 267 273 278 296 319 327 330 329 333 340 341 343 342 337 334 335 336 335 335 336 329 344 1 62 101 89
200 199 199 201 202 206 206 205 207 212 214 219 226 234 241 253 265 255 260 271 284 309 320 331 330 332 337 340 341 340 336 336 336 337 338 333 333 336 351 28 70 101 112
202 200 201 202 204 206 207 206 207 210 214 220 226 232 240 254 277 257 254 271 283 309 320 328 331 335 338 338 339 338 336 341 343 347 344 339 333 350 1 57 99 127 124
204 203 203 203 205 206 207 205 208 211 215 222 230 234 240 249 261 266 261 266 284 308 319 325 331 336 337 338 340 338 345 350 352 356 354 352 1 14 33 71 118 131 131
Height
859 862 862 862 863 862 862 863 863 864 863 865 866 867 865 863 862 860 857 856 854 851 848 846 844 842 839 836 833 829 826 823 815 804 801 795 789 782 777 772 767 762 756
858 861 862 863 862 862 862 863 865 865 867 869 868 867 866 864 863 861 859 857 852 849 847 845 844 841 837 835 831 826 823 819 814 802 796 790 786 780 775 768 763 758 753
857 860 860 861 861 862 863 864 867 867 870 869 869 868 866 865 864 862 859 856 852 850 848 845 843 839 836 832 828 824 820 816 811 803 792 788 783 777 770 766 761 755 750
855 857 858 859 860 862 864 866 868 870 870 869 869 868 867 866 864 862 859 856 853 850 848 844 841 838 835 831 826 822 818 813 807 801 793 786 781 774 769 762 754 752 745
851 854 856 858 861 863 865 867 868 869 869 869 869 868 867 865 864 861 858 855 852 849 846 843 840 837 834 830 825 820 816 810 805 799 792 784 777 770 766 760 753 746 742
848 851 855 858 861 863 865 866 867 868 868 868 868 867 865 864 863 861 858 856 853 849 845 841 838 835 832 828 823 819 815 809 804 799 792 784 776 771 764 758 751 743 734
845 850 853 857 860 862 864 865 866 866 867 867 866 865 864 863 862 860 858 856 853 850 846 841 837 834 830 825 820 816 812 808 804 798 790 784 775 769 762 754 749 744 737
842 847 851 854 857 860 862 863 864 865 865 865 864 863 863 862 860 859 857 855 853 850 845 841 836 832 828 823 818 813 809 805 800 795 789 782 775 767 761 755 747 739 733
838 842 847 850 854 857 859 860 862 863 863 863 862 862 861 861 859 858 856 853 850 847 843 839 835 831 826 821 816 811 805 801 797 792 786 778 771 764 758 751 744 738 729
833 837 843 847 850 853 856 858 859 860 860 861 861 860 859 859 858 857 855 852 849 844 840 836 833 829 824 820 815 810 804 798 792 785 779 773 767 760 755 751 744 737 730
827 833 839 843 846 850 852 854 856 857 858 859 859 859 858 857 856 855 854 851 848 843 839 835 831 827 823 818 814 809 804 797 790 783 777 770 764 757 752 747 742 736 729
822 828 833 838 842 846 848 851 853 855 856 856 857 857 856 855 854 854 852 850 847 843 839 835 831 826 821 817 812 808 802 796 789 782 775 768 762 755 749 744 739 733 728
817 822 827 833 837 841 844 847 850 851 852 853 854 854 854 853 852 851 849 847 845 841 838 834 830 825 820 815 811 806 799 794 788 782 775 769 762 755 749 743 736 731 724
810 816 822 827 833 837 840 843 846 847 849 850 850 851 851 851 850 849 847 845 842 839 836 832 828 824 819 815 809 804 798 794 788 782 776 768 761 755 748 742 735 729 723
804 811 816 822 828 832 836 839 841 844 846 846 847 848 848 848 848 846 845 842 840 837 834 830 826 822 817 813 808 803 798 793 787 782 775 768 762 755 748 742 736 730 726
799 806 810 816 822 827 831 835 839 841 842 844 845 845 846 845 845 844 843 841 839 836 833 829 825 821 817 812 807 802 797 792 786 781 775 769 763 755 749 743 738 733 729
791 799 805 811 816 822 827 831 834 838 839 841 842 843 843 843 843 842 840 839 837 835 833 829 825 821 816 812 807 801 796 791 786 781 775 769 762 756 750 744 741 737 732
787 793 799 805 811 817 822 826 830 833 835 837 839 840 840 841 840 840 838 837 835 833 831 828 824 820 815 811 806 800 795 790 785 779 774 768 762 757 751 747 744 740 737
782 789 795 801 807 813 818 822 826 829 832 834 836 837 838 838 838 837 836 835 833 831 829 826 823 818 814 809 804 799 794 789 785 779 774 768 762 757 753 750 747 744 741
777 783 789 796 803 809 813 817 821 824 827 830 832 833 835 835 835 835 834 832 831 829 827 824 820 816 811 807 802 798 792 788 783 778 773 768 763 758 754 751 749 747 745
771 778 786 793 798 803 807 811 815 819 822 825 828 830 831 831 831 831 830 829 828 826 824 821 818 814 810 805 801 796 791 787 782 777 772 768 763 759 755 752 750 748 747
766 773 781 787 793 798 802 806 810 814 818 821 824 826 827 828 828 827 826 826 825 823 822 818 815 812 808 804 799 794 790 785 780 775 771 767 763 759 756 753 751 750 749
762 769 776 782 788 793 798 802 806 809 813 817 820 822 823 824 824 823 823 822 822 821 819 816 813 809 805 801 797 793 788 783 778 774 769 766 762 759 756 754 752 752 752
757 763 770 776 782 788 793 796 801 805 809 812 815 817 819 819 819 819 819 819 818 817 816 813 810 807 802 799 795 791 786 781 776 771 768 765 761 759 756 755 754 754 754
752 758 764 770 776 782 788 792 797 801 805 808 811 813 814 815 815 815 815 816 815 814 812 810 807 803 800 796 792 788 783 778 773 769 766 763 761 759 757 756 756 756 756
748 753 759 765 771 777 782 787 792 796 800 803 806 808 809 810 811 811 812 812 811 810 809 807 804 800 797 793 789 785 780 776 772 768 766 764 762 760 759 758 758 759 759